This is the latest recevied weather packets stored in our database for station/object KE0TNI-13. If no packets are shown the sender has not sent any weather packets the latest 10 day(s).
| Time | Temp. | Humidity | Pressure | Rain* | Wind** | Luminosity | Snow |
|---|---|---|---|---|---|---|---|
| 1777839546 | 13.89° C | 19% | 1019.8 hPa | 0 mm | - | 206 W/m² | - |
| 1777839243 | 14.44° C | 19% | 1020 hPa | 0 mm | - | 207 W/m² | - |
| 1777838941 | 14.44° C | 19% | 1020.1 hPa | 0 mm | - | 194 W/m² | - |
| 1777838636 | 15° C | 19% | 1020.1 hPa | 0 mm | - | 217 W/m² | - |
| 1777838334 | 15° C | 20% | 1020.1 hPa | 0 mm | - | 274 W/m² | - |
| 1777838030 | 13.89° C | 20% | 1020.1 hPa | 0 mm | - | 230 W/m² | - |
| 1777837728 | 14.44° C | 21% | 1020.1 hPa | 0 mm | - | 206 W/m² | - |
| 1777837423 | 15° C | 19% | 1020.2 hPa | 0 mm | - | 187 W/m² | - |
| 1777837120 | 15.56° C | 18% | 1020.4 hPa | 0 mm | - | 180 W/m² | - |
| 1777836816 | 14.44° C | 23% | 1020.2 hPa | 0 mm | - | 206 W/m² | - |
| 1777836512 | 13.89° C | 21% | 1020.4 hPa | 0 mm | - | 243 W/m² | - |
| 1777836207 | 14.44° C | 20% | 1020.5 hPa | 0 mm | - | 272 W/m² | - |
| 1777835904 | 14.44° C | 21% | 1020.5 hPa | 0 mm | - | 258 W/m² | - |
| 1777835601 | 14.44° C | 19% | 1020.5 hPa | 0 mm | - | 264 W/m² | - |
| 1777835297 | 15.56° C | 20% | 1020.7 hPa | 0 mm | - | 242 W/m² | - |
| 1777834995 | 15.56° C | 19% | 1020.7 hPa | 0 mm | - | 232 W/m² | - |
| 1777834692 | 14.44° C | 22% | 1021 hPa | 0 mm | - | 240 W/m² | - |
| 1777834388 | 15.56° C | 21% | 1020.7 hPa | 0 mm | - | 234 W/m² | - |
| 1777834088 | 15.56° C | 19% | 1021 hPa | 0 mm | - | 255 W/m² | - |
| 1777833784 | 14.44° C | 25% | 1021.1 hPa | 0 mm | - | 285 W/m² | - |
| 1777833480 | 14.44° C | 21% | 1021.3 hPa | 0 mm | - | 291 W/m² | - |
| 1777833178 | 14.44° C | 20% | 1021.5 hPa | 0 mm | - | 294 W/m² | - |
| 1777832875 | 15° C | 23% | 1021.5 hPa | 0 mm | - | 287 W/m² | - |
| 1777832574 | 15.56° C | 21% | 1021.5 hPa | 0 mm | - | 392 W/m² | - |
| 1777832270 | 15.56° C | 22% | 1021.5 hPa | 0 mm | - | 1020 W/m² | - |
* Rain latest hour (hover to see other rain measurements)
** Current wind speed in m/s (hover to see current wind gust speed)